TimeCDT,TemperatureF,Dew PointF,Humidity,Sea Level PressureIn,VisibilityMPH,Wind Direction,Wind SpeedMPH,Gust SpeedMPH,PrecipitationIn,Events,Conditions,WindDirDegrees,DateUTC
12:13 AM,39.2,37.4,93,30.26,10.0,Calm,Calm,-,N/A,,Clear,0,2013-09-13 05:13:00
12:33 AM,37.4,35.6,93,30.26,3.0,Calm,Calm,-,N/A,,Clear,0,2013-09-13 05:33:00
12:53 AM,37.4,35.6,93,30.26,4.0,Calm,Calm,-,N/A,,Clear,0,2013-09-13 05:53:00
1:13 AM,37.4,35.6,93,30.26,10.0,Calm,Calm,-,N/A,,Clear,0,2013-09-13 06:13:00
1:33 AM,37.4,35.6,93,30.26,10.0,Calm,Calm,-,N/A,,Clear,0,2013-09-13 06:33:00
1:53 AM,37.4,35.6,93,30.26,10.0,Calm,Calm,-,N/A,,Clear,0,2013-09-13 06:53:00
2:13 AM,37.4,37.4,100,30.26,10.0,Calm,Calm,-,N/A,,Scattered Clouds,0,2013-09-13 07:13:00
2:33 AM,37.4,37.4,100,30.25,10.0,Calm,Calm,-,N/A,,Mostly Cloudy,0,2013-09-13 07:33:00
2:53 AM,41.0,39.2,93,30.25,10.0,Calm,Calm,-,N/A,,Overcast,0,2013-09-13 07:53:00
3:13 AM,42.8,39.2,87,30.25,10.0,Calm,Calm,-,N/A,,Overcast,0,2013-09-13 08:13:00
3:33 AM,42.8,41.0,93,30.25,10.0,Calm,Calm,-,N/A,,Overcast,0,2013-09-13 08:33:00
3:53 AM,42.8,41.0,93,30.25,10.0,Calm,Calm,-,N/A,,Overcast,0,2013-09-13 08:53:00
4:13 AM,44.6,42.8,93,30.25,10.0,Calm,Calm,-,N/A,,Overcast,0,2013-09-13 09:13:00
4:33 AM,44.6,42.8,93,30.25,10.0,Calm,Calm,-,N/A,,Overcast,0,2013-09-13 09:33:00
4:53 AM,44.6,42.8,93,30.25,10.0,Calm,Calm,-,N/A,,Overcast,0,2013-09-13 09:53:00
5:13 AM,44.6,42.8,93,30.25,10.0,Calm,Calm,-,N/A,,Mostly Cloudy,0,2013-09-13 10:13:00
5:33 AM,44.6,42.8,93,30.25,10.0,Calm,Calm,-,N/A,,Overcast,0,2013-09-13 10:33:00
5:53 AM,44.6,42.8,93,30.25,10.0,Calm,Calm,-,N/A,,Overcast,0,2013-09-13 10:53:00
6:13 AM,44.6,42.8,93,30.25,10.0,Calm,Calm,-,N/A,,Mostly Cloudy,0,2013-09-13 11:13:00
6:33 AM,42.8,41.0,93,30.25,10.0,Calm,Calm,-,N/A,,Scattered Clouds,0,2013-09-13 11:33:00
6:53 AM,41.0,39.2,93,30.25,4.0,Calm,Calm,-,N/A,,Clear,0,2013-09-13 11:53:00
7:13 AM,41.0,39.2,93,30.26,10.0,Calm,Calm,-,N/A,,Clear,0,2013-09-13 12:13:00
7:33 AM,41.0,39.2,93,30.26,10.0,Calm,Calm,-,N/A,,Clear,0,2013-09-13 12:33:00
7:53 AM,42.8,41.0,93,30.25,10.0,Calm,Calm,-,N/A,,Clear,0,2013-09-13 12:53:00
8:13 AM,46.4,44.6,93,30.25,10.0,Calm,Calm,-,N/A,,Clear,0,2013-09-13 13:13:00
8:33 AM,50.0,48.2,94,30.25,10.0,Calm,Calm,-,N/A,,Clear,0,2013-09-13 13:33:00
8:53 AM,51.8,48.2,88,30.25,10.0,SSW,3.5,-,N/A,,Clear,210,2013-09-13 13:53:00
9:13 AM,55.4,48.2,77,30.25,10.0,SSW,4.6,-,N/A,,Clear,210,2013-09-13 14:13:00
9:33 AM,57.2,50.0,77,30.24,10.0,SSW,5.8,-,N/A,,Clear,200,2013-09-13 14:33:00
9:53 AM,60.8,50.0,68,30.25,10.0,SSW,6.9,-,N/A,,Clear,200,2013-09-13 14:53:00
10:13 AM,60.8,50.0,68,30.25,10.0,South,5.8,-,N/A,,Clear,190,2013-09-13 15:13:00
10:33 AM,62.6,50.0,63,30.24,10.0,SSW,5.8,-,N/A,,Clear,200,2013-09-13 15:33:00
10:53 AM,64.4,50.0,59,30.24,10.0,South,5.8,-,N/A,,Clear,180,2013-09-13 15:53:00
11:13 AM,64.4,50.0,59,30.23,10.0,South,6.9,-,N/A,,Clear,190,2013-09-13 16:13:00
11:33 AM,66.2,48.2,52,30.23,10.0,SSW,9.2,-,N/A,,Clear,210,2013-09-13 16:33:00
11:53 AM,64.4,46.4,52,30.22,10.0,SSW,10.4,17.3,N/A,,Clear,210,2013-09-13 16:53:00
12:13 PM,66.2,48.2,52,30.21,10.0,SSW,11.5,17.3,N/A,,Clear,210,2013-09-13 17:13:00
12:33 PM,66.2,46.4,49,30.21,10.0,South,8.1,16.1,N/A,,Mostly Cloudy,190,2013-09-13 17:33:00
12:53 PM,66.2,48.2,52,30.20,10.0,SSW,12.7,17.3,N/A,,Overcast,200,2013-09-13 17:53:00
1:13 PM,64.4,48.2,56,30.19,10.0,WSW,8.1,-,N/A,,Mostly Cloudy,240,2013-09-13 18:13:00
1:33 PM,68.0,48.2,49,30.18,10.0,SSW,10.4,17.3,N/A,,Scattered Clouds,210,2013-09-13 18:33:00
1:53 PM,66.2,46.4,49,30.17,10.0,SW,12.7,16.1,N/A,,Scattered Clouds,220,2013-09-13 18:53:00
2:13 PM,66.2,46.4,49,30.17,10.0,SW,13.8,18.4,N/A,,Clear,220,2013-09-13 19:13:00
2:33 PM,66.2,46.4,49,30.16,10.0,SW,6.9,-,N/A,,Scattered Clouds,230,2013-09-13 19:33:00
2:53 PM,69.8,46.4,43,30.15,10.0,SSW,8.1,16.1,N/A,,Scattered Clouds,210,2013-09-13 19:53:00
3:13 PM,66.2,46.4,49,30.15,10.0,SW,10.4,18.4,N/A,,Scattered Clouds,220,2013-09-13 20:13:00
3:33 PM,69.8,48.2,46,30.13,10.0,SW,8.1,11.5,N/A,,Scattered Clouds,220,2013-09-13 20:33:00
3:53 PM,69.8,46.4,43,30.12,10.0,SSW,6.9,-,N/A,,Clear,210,2013-09-13 20:53:00
4:13 PM,69.8,46.4,43,30.12,10.0,SSW,13.8,17.3,N/A,,Clear,210,2013-09-13 21:13:00
4:33 PM,69.8,46.4,43,30.11,10.0,SW,10.4,-,N/A,,Clear,220,2013-09-13 21:33:00
4:53 PM,69.8,48.2,46,30.11,10.0,SW,11.5,-,N/A,,Clear,220,2013-09-13 21:53:00
5:13 PM,69.8,48.2,46,30.10,10.0,SSW,11.5,-,N/A,,Clear,210,2013-09-13 22:13:00
5:33 PM,68.0,48.2,49,30.10,10.0,SSW,8.1,-,N/A,,Clear,200,2013-09-13 22:33:00
5:53 PM,66.2,48.2,52,30.09,10.0,South,10.4,-,N/A,,Clear,190,2013-09-13 22:53:00
6:13 PM,66.2,48.2,52,30.08,10.0,SW,8.1,-,N/A,,Clear,220,2013-09-13 23:13:00
6:33 PM,66.2,48.2,52,30.07,10.0,SSW,6.9,-,N/A,,Clear,200,2013-09-13 23:33:00
6:53 PM,64.4,50.0,59,30.07,10.0,South,4.6,-,N/A,,Clear,190,2013-09-13 23:53:00
7:13 PM,60.8,48.2,63,30.06,10.0,South,5.8,-,N/A,,Clear,190,2013-09-14 00:13:00
7:33 PM,57.2,48.2,72,30.06,10.0,South,3.5,-,N/A,,Clear,190,2013-09-14 00:33:00
7:53 PM,55.4,48.2,77,30.06,10.0,South,4.6,-,N/A,,Clear,170,2013-09-14 00:53:00
8:13 PM,57.2,48.2,72,30.06,10.0,South,4.6,-,N/A,,Clear,190,2013-09-14 01:13:00
8:33 PM,55.4,48.2,77,30.05,10.0,South,5.8,-,N/A,,Clear,180,2013-09-14 01:33:00
8:53 PM,55.4,48.2,77,30.05,10.0,South,5.8,-,N/A,,Clear,180,2013-09-14 01:53:00
9:13 PM,53.6,46.4,77,30.04,10.0,South,4.6,-,N/A,,Clear,180,2013-09-14 02:13:00
9:33 PM,53.6,46.4,77,30.04,10.0,South,5.8,-,N/A,,Clear,190,2013-09-14 02:33:00
9:53 PM,53.6,46.4,77,30.04,10.0,South,6.9,-,N/A,,Clear,190,2013-09-14 02:53:00
10:13 PM,55.4,46.4,72,30.02,10.0,South,6.9,-,N/A,,Clear,180,2013-09-14 03:13:00
10:33 PM,53.6,46.4,77,30.02,10.0,South,5.8,-,N/A,,Clear,190,2013-09-14 03:33:00
10:53 PM,53.6,46.4,77,30.02,10.0,South,5.8,-,N/A,,Clear,190,2013-09-14 03:53:00
11:13 PM,53.6,46.4,77,30.01,10.0,South,6.9,-,N/A,,Clear,190,2013-09-14 04:13:00
11:33 PM,53.6,46.4,77,30.01,10.0,SSW,3.5,-,N/A,,Clear,210,2013-09-14 04:33:00
11:53 PM,51.8,46.4,82,30.01,10.0,SSW,3.5,-,N/A,,Clear,210,2013-09-14 04:53:00